{"data":{"norad_id":66827,"epoch":"2026-05-25T02:54:32.417856Z","epoch_age_seconds":60570,"freshness":"FRESH","line1":"1 66827U 25280G   26145.12120854  .00003475  00000+0  29884-3 0  9999","line2":"2 66827  70.0007 141.7853 0004050 265.5615  94.5082 14.98335850 27523","mean_motion":14.9833585,"eccentricity":0.000405,"inclination_deg":70.0007,"raan_deg":141.7853,"arg_perigee_deg":265.5615,"mean_anomaly_deg":94.5082,"bstar":0.00029884,"rev_number":2752,"period_min":96.1066238921,"perigee_km":569.2229795667,"apogee_km":574.85262115499,"semimajor_km":6950.1748003608,"source":"CELESTRAK","updated_at":"2026-05-25T13:38:21.334614Z"}}